DELTA 1 R/B, 1729

Orbit data source: Space-Track

DELTA 1 R/B, 1729 is space debris in LEO originally from a launch on Sat, 06 Nov 1965 UTC launched from the Air Force Eastern Test Range (AFETR). Debris objects in space refer to the collection of defunct objects orbiting the Earth. Examples of debris include non-operational satellites, rocket bodies, and fragments generated from explosions, collisions, or faulty payload assembly.

Loading next visibility...
Identifier
1729, 1965-089B
Orbit
LEO
Country
Flag of USUS
Related business
Manufacturer
ABL
Mission
Spacecraft
Bus & Motor
ALTAIR, Unknown motor
Mass
~60 kg wet, ~60 kg dry
Launch date (UTC)
1965-11-06 (60 years ago)
Launch vehicle
Unknown
Launch site
Air Force Eastern Test Range (AFETR)
Object type
Payload
Rocket body
Debris
Shape & HBR
Unknown
Radar Cross Section
Medium (>0.1 m² and <1 m²)

Expand to show TLE details & history
Last TLE update: 15 hours ago

TLE from 15 hours ago
0 DELTA 1 R/B
1  1729U 65089B   26035.28633281  .00000002  00000-0  47587-3 0  9992
2  1729  59.3920 312.1211 0718280 103.5494 349.1535 11.97570089634507
Epoch: 2026-02-04T06:52Z
TLE epoch observation values (Epoch: 2026-02-04T06:52:19.154Z)
Latitude
59.50728°
Longitude
166.56111°
Altitude
1,132.767 km
Speed
7.545 km/s
True Right ascension
02h 56m 23s
True Declination
59° 21' 51"
Sunlit
Object was in daylight at epoch
Visualization orbit readout
Latitude
Unknown
Longitude
Unknown
Altitude
Unknown
Speed
Unknown
Apparent Right ascension
Unknown
Apparent Declination
Unknown
Sunlit
N/A
Visualization observer readout
Local Sidereal Time
23:43:10
Azimuth
Unknown
Elevation
Unknown
Doppler factor
Unknown
Orbital elements
Apogee altitude
2,270.753 km
Perigee altitude
1,111.551 km
Semi-major axis
8,069.289 km
Eccentricity
0.07183
Inclination
59.392°
RAAN
312.1211°
Arg. of periapsis
103.5494°
True anomaly
347.45574°
Mean anomaly
349.1535°
Eccentric anomaly
348.32037°
Mean motion
2.99427 °/min
Orbital period
120.23 mins
BSTAR
0.00047587
Loading maneuver chart data...
Computing Atmospheric mass density...
Loading historical data...
Loading historical data...
Loading historical data...
Loading historical data...
Loading historical data...
Loading historical data...
Loading historical data...

Documentation

Showing up to 5 results
|